Change the Weather History Date:

Friday, May 10, 2013

  Actual Average Record
Temperature  
Mean Temperature 52 °F 54 °F  
Max Temperature 73 °F 67 °F 90 °F (1987)
Min Temperature 30 °F 41 °F 22 °F (1945)
Degree Days  
Heating Degree Days 13 12  
Month to date heating degree days 181 132  
Since 1 July heating degree days 8704 8287  
Cooling Degree Days 0 0  
Month to date cooling degree days 0 0  
Year to date cooling degree days 0 1  
Growing Degree Days 2 (Base 50)    
Moisture  
Dew Point 29 °F    
Average Humidity 54    
Maximum Humidity 85    
Minimum Humidity 23    
Precipitation  
Precipitation 0.00 in 0.08 in 1.24 in (1999)
Month to date precipitation 0.00 0.67  
Year to date precipitation 3.23 3.74  
Snow  
Snow 0.00 in 0.00 in 4.20 in (1905)
Month to date snowfall 0.0 0.3  
Since 1 July snowfall 57.3 51.1  
Snow Depth 0.00 in    
Sea Level Pressure  
Sea Level Pressure 30.13 in    
Wind  
Wind Speed 14 mph (NNW)    
Max Wind Speed 31 mph    
Max Gust Speed 40 mph    
Visibility 10 miles    
Events      
T = Trace of Precipitation, MM = Missing Value Source: NWS Daily Summary

Daily Weather History Graph

Daily Weather History Graph

Search for Another Location

Airport or City:

Trip Planner

Search our weather history database for the weather conditions in past years. The results will help you decide how hot, cold, wet, or windy it might be!

Date:

Astronomy

May. 10, 2013 Rise Set
Actual Time 6:14 AM CDT 9:05 PM CDT
Civil Twilight 5:39 AM CDT 9:40 PM CDT
Nautical Twilight 4:54 AM CDT 10:25 PM CDT
Astronomical Twilight 4:01 AM CDT 11:19 PM CDT
Moon 6:39 AM CDT (5/10) 9:57 PM CDT (5/10)
Length of Visible Light 16h 01m
Length of Day
14h 50m
New Moon, 0% of the Moon is Illuminated
May 10
New Moon
May 17
First Quarter
May 24
Full
May 31
Last Quarter
Jun 8
New

Hourly Weather History & Observations

Time (CDT) Temp. Windchill Dew Point Humidity Pressure Visibility Wind Dir Wind Speed Gust Speed Precip Events Conditions
12:52 AM 41.0 °F - 28.0 °F 60% 30.22 in 10.0 mi Calm Calm - N/A   Clear
1:52 AM 39.0 °F 36.8 °F 28.0 °F 65% 30.21 in 10.0 mi NE 3.5 mph - N/A   Clear
2:52 AM 37.4 °F 33.8 °F 28.4 °F 70% 30.16 in 10.0 mi ENE 4.6 mph - N/A   Clear
3:52 AM 37.0 °F 33.3 °F 28.0 °F 70% 30.18 in 7.0 mi NE 4.6 mph - N/A   Clear
4:52 AM 33.1 °F - 27.0 °F 78% 30.17 in 10.0 mi Calm Calm - N/A   Clear
5:52 AM 30.9 °F - 27.0 °F 85% 30.15 in 10.0 mi Calm Calm - N/A   Clear
6:52 AM 30.0 °F - 27.0 °F 88% 30.14 in 10.0 mi Calm Calm - N/A   Clear
7:52 AM 37.9 °F - 32.0 °F 79% 30.12 in 10.0 mi Calm Calm - N/A   Clear
8:52 AM 46.9 °F - 32.0 °F 56% 30.12 in 10.0 mi SSE 3.5 mph - N/A   Clear
9:52 AM 59.0 °F - 28.9 °F 32% 30.08 in 10.0 mi SW 12.7 mph - N/A   Clear
10:52 AM 64.0 °F - 30.0 °F 28% 30.06 in 10.0 mi WSW 17.3 mph - N/A   Clear
11:52 AM 70.0 °F - 36.0 °F 29% 30.04 in 10.0 mi West 16.1 mph 20.7 mph N/A   Clear
12:52 PM 72.0 °F - 37.9 °F 29% 30.01 in 10.0 mi WNW 21.9 mph 29.9 mph N/A   Clear
1:52 PM 71.1 °F - 36.0 °F 28% 30.02 in 9.0 mi NW 21.9 mph 33.4 mph N/A   Clear
2:52 PM 68.0 °F - 35.1 °F 30% 30.05 in 10.0 mi NNW 26.5 mph 38.0 mph N/A   Partly Cloudy
3:52 PM 69.1 °F - 30.0 °F 23% 30.07 in 10.0 mi NNW 19.6 mph 34.5 mph N/A   Clear
4:52 PM 66.9 °F - 33.1 °F 28% 30.09 in 10.0 mi NNW 21.9 mph 32.2 mph N/A   Clear
5:52 PM 64.9 °F - 28.9 °F 26% 30.12 in 10.0 mi North 21.9 mph 27.6 mph N/A   Clear
6:52 PM 63.0 °F - 28.9 °F 28% 30.14 in 10.0 mi North 21.9 mph 31.1 mph N/A   Clear
7:52 PM 61.0 °F - 25.0 °F 25% 30.15 in 10.0 mi NNW 26.5 mph 35.7 mph N/A   Clear
8:52 PM 57.9 °F - 24.1 °F 27% 30.18 in 10.0 mi NNW 19.6 mph 29.9 mph N/A   Clear
9:52 PM 55.0 °F - 19.9 °F 25% 30.22 in 10.0 mi NNW 17.3 mph 29.9 mph N/A   Clear
10:52 PM 52.0 °F - 19.9 °F 28% 30.26 in 10.0 mi North 19.6 mph 28.8 mph N/A   Clear
11:52 PM 48.9 °F - 21.9 °F 35% 30.27 in 10.0 mi North 13.8 mph 24.2 mph N/A   Clear